Temperature
15 15 15 15 15 16 16 16 16 16 16 16 17 17 17 17 17 17 17 17 17 17 17 17 17 17 17 18 18 18 18 18 18 18 18 18 18 18 18 18 18 17 17
15 15 15 15 15 15 16 16 16 16 16 16 16 17 17 17 17 17 17 17 17 17 17 17 17 17 17 17 17 17 18 18 18 18 18 18 18 17 17 17 17 17 17
14 14 14 15 15 15 15 15 16 16 16 16 16 16 17 17 17 17 17 17 17 17 17 17 17 17 17 17 17 17 17 17 18 18 18 18 18 17 17 17 17 17 17
14 14 14 14 14 15 15 15 15 16 16 16 16 16 16 17 17 17 17 17 18 18 17 17 17 17 17 17 17 17 17 17 17 17 18 18 18 18 17 17 17 17 17
13 13 14 14 14 14 15 15 15 15 15 16 16 16 16 17 17 17 17 17 17 17 17 17 17 17 17 17 17 17 17 17 17 17 17 17 17 18 17 17 17 17 17
13 13 13 14 14 14 14 14 15 15 15 15 16 16 16 16 17 17 17 17 17 17 17 17 17 17 17 17 17 17 17 17 17 17 17 17 17 17 17 17 17 17 17
13 13 13 13 13 14 14 14 14 14 15 15 15 16 16 16 16 17 17 17 17 17 17 17 17 17 17 17 17 17 17 17 17 17 17 17 17 17 17 17 17 17 17
12 12 13 13 13 13 13 14 14 14 14 14 15 15 15 16 16 16 17 17 17 17 17 17 17 17 17 17 17 17 17 17 17 17 17 17 17 17 17 17 17 17 17
12 12 12 12 13 13 13 13 13 13 14 14 14 14 15 15 15 16 16 16 17 17 17 17 17 17 17 17 17 17 17 17 17 17 17 17 17 17 17 17 17 17 17
12 12 12 12 12 12 12 13 13 13 13 13 14 14 14 14 15 15 16 16 16 16 16 17 17 17 17 17 17 17 17 17 17 17 17 17 17 17 17 17 17 17 17
12 12 12 12 12 12 12 12 12 12 13 13 13 13 14 14 14 14 15 15 16 16 16 16 16 17 17 17 17 17 17 17 17 17 17 17 17 17 17 17 17 17 17
12 12 12 12 12 12 12 12 12 12 12 12 13 13 13 13 13 14 14 14 15 15 16 16 16 16 17 17 17 17 17 17 17 17 17 17 17 17 17 17 17 17 17
12 12 12 11 11 11 11 11 12 12 12 12 12 12 13 13 13 13 13 14 14 15 15 16 16 16 16 16 17 17 17 17 17 17 17 17 17 17 17 17 17 17 17
12 11 11 11 11 11 11 11 11 11 12 12 12 12 12 12 13 13 13 13 13 14 14 15 15 16 16 16 16 16 17 17 17 17 17 17 17 17 17 16 16 16 16
11 11 11 11 11 11 11 11 11 11 11 11 12 12 12 12 12 12 13 13 13 13 13 14 15 15 15 15 16 16 16 16 16 17 17 17 17 17 17 16 16 16 16
12 11 11 11 11 11 11 11 11 11 11 11 11 12 12 12 12 12 12 12 12 12 12 13 14 14 15 15 15 15 16 16 16 16 16 17 16 17 17 16 16 16 16
12 11 11 11 11 11 11 11 11 11 11 11 11 11 12 12 12 12 12 12 12 12 12 13 13 14 14 14 15 15 15 15 16 16 16 16 16 16 16 16 16 16 16
12 11 11 11 11 11 11 11 11 11 11 11 11 11 11 11 12 12 12 12 12 12 12 12 13 13 13 14 14 14 15 15 15 16 16 16 16 16 16 16 16 16 16
12 12 12 12 11 11 11 11 11 11 11 11 11 11 11 11 11 11 11 11 11 12 12 12 12 13 13 13 14 14 14 15 15 15 15 16 16 16 16 16 16 16 16
13 12 12 12 12 11 11 11 11 11 11 11 11 11 11 11 11 11 11 11 11 11 11 11 12 12 12 13 13 13 14 14 14 15 15 15 15 15 15 16 16 16 16
13 13 13 12 12 12 12 11 11 11 11 11 11 11 11 11 11 11 11 11 11 11 11 11 11 12 12 12 12 13 13 13 14 14 14 15 15 15 15 15 15 16 16
14 13 13 13 12 12 12 12 12 11 11 11 11 11 11 11 11 11 11 11 11 11 11 11 11 11 12 12 12 12 12 12 13 14 14 14 14 14 15 15 15 15 15
14 14 13 13 13 13 12 12 12 12 12 11 11 11 11 11 11 11 11 11 11 11 11 11 11 11 11 11 11 12 12 12 12 13 13 13 14 14 14 15 15 15 15
14 14 14 13 13 13 13 12 12 12 12 12 11 11 11 11 11 11 11 11 11 11 11 11 11 11 11 11 11 11 11 11 12 12 12 12 13 14 14 14 14 15 15
15 14 14 14 14 13 13 13 12 12 12 12 12 11 11 11 11 11 11 11 11 11 11 11 11 11 11 11 11 11 11 11 11 12 12 12 13 13 14 14 14 14 14
15 14 14 14 14 14 13 13 13 12 12 12 12 12 11 11 11 11 11 11 11 11 11 11 11 11 11 11 11 11 11 11 11 11 12 12 12 12 12 13 14 14 14
Wind_Speed
3 3 2 2 2 2 2 2 2 3 3 3 4 4 4 4 5 5 6 8 9 9 10 11 11 10 10 9 9 9 10 10 11 12 12 11 12 12 12 12 12 11 11
2 3 3 2 2 2 2 2 3 3 3 3 4 4 4 4 4 4 5 6 7 8 10 11 11 11 10 10 10 10 10 10 11 12 13 12 12 12 12 11 12 12 12
3 3 3 3 3 3 2 2 2 2 2 3 4 4 4 4 4 4 4 4 5 7 9 10 11 11 11 10 10 10 10 11 11 13 13 14 13 13 13 12 12 12 12
5 3 3 3 4 3 1 1 1 1 2 2 3 3 3 3 4 4 3 4 4 5 7 9 11 12 12 11 11 11 11 11 12 13 14 15 15 15 14 13 12 12 12
7 3 3 3 4 2 2 1 0 1 1 2 3 3 3 3 3 3 3 3 4 5 5 7 10 13 13 12 12 12 12 12 13 13 14 15 16 15 15 14 13 13 12
7 5 3 4 4 2 2 2 1 1 1 1 2 2 3 4 3 4 4 3 3 4 5 6 7 10 13 14 13 13 13 13 13 14 14 15 16 16 16 15 15 14 13
6 5 4 5 4 3 3 3 1 1 1 0 0 1 2 2 3 4 4 3 3 4 4 6 7 8 9 14 16 15 14 14 14 15 15 16 17 17 17 16 16 15 14
6 5 5 4 4 4 4 4 2 1 1 1 1 1 1 2 1 2 2 3 3 2 3 5 6 8 9 10 13 17 16 15 15 16 16 16 17 18 18 17 17 17 16
5 5 5 4 4 4 3 4 3 2 1 1 1 1 1 1 2 2 1 1 2 2 3 3 5 8 9 10 12 15 18 17 17 17 17 18 18 19 19 19 18 18 17
5 5 5 4 4 4 4 4 3 2 1 1 2 1 0 1 0 1 2 2 2 2 3 3 4 6 9 10 12 14 17 19 19 19 18 18 19 19 20 20 20 19 18
5 5 5 4 4 4 4 4 4 3 2 1 1 1 1 1 1 1 1 2 2 2 3 4 4 4 7 10 11 13 16 18 19 20 20 19 20 20 21 21 21 20 20
4 5 4 4 4 4 4 3 3 3 3 2 1 1 0 0 0 1 1 1 2 3 3 3 4 4 5 8 11 13 15 17 18 19 20 20 21 21 22 22 23 22 22
3 5 4 4 3 3 4 4 4 4 3 3 2 1 1 1 1 1 1 1 2 2 3 2 3 3 4 6 8 12 14 16 18 19 20 21 21 22 23 23 24 24 23
3 4 3 3 3 3 3 3 3 3 3 3 3 2 1 1 1 1 1 1 1 2 2 3 2 2 3 4 7 10 11 14 17 18 20 21 22 22 23 24 24 24 24
2 3 3 3 3 3 3 3 3 3 3 3 3 3 2 2 1 1 1 2 2 1 2 3 2 2 2 4 6 7 9 12 15 17 19 20 21 22 23 24 24 24 24
2 2 3 2 3 3 3 3 2 3 4 3 3 3 3 2 2 2 1 1 2 3 3 2 3 3 4 4 6 6 8 11 14 16 18 19 20 21 21 23 24 24 24
2 2 1 2 2 2 2 2 2 3 3 4 4 3 4 3 3 2 1 1 2 3 4 4 3 3 3 4 5 6 7 8 9 13 16 18 19 20 20 21 22 23 24
2 2 1 1 2 2 2 2 2 3 3 4 4 4 5 4 4 2 2 2 2 3 3 4 3 3 4 4 5 5 5 6 7 10 14 16 17 19 20 20 21 22 23
2 2 1 2 3 3 2 2 2 2 3 3 4 4 4 4 4 3 3 2 2 2 3 3 4 3 3 3 3 4 5 4 5 8 10 13 16 17 19 20 20 21 22
3 3 3 3 4 4 3 3 3 3 3 4 4 4 4 4 4 4 3 3 3 2 2 3 3 3 3 3 3 3 4 3 4 5 6 9 11 15 17 19 20 21 22
4 4 4 4 4 4 4 4 4 3 4 5 5 4 5 5 5 3 3 3 2 2 2 3 3 3 3 3 3 2 4 4 4 3 4 4 5 6 8 14 17 20 21
5 4 5 5 5 5 7 7 5 4 4 4 5 5 6 5 6 6 7 5 3 3 3 3 3 4 5 4 4 3 3 3 4 2 2 4 3 6 7 8 13 17 20
5 5 6 5 6 8 10 9 8 4 4 4 4 5 4 4 6 4 6 7 6 6 5 4 6 6 5 4 4 5 5 5 6 4 3 5 4 7 7 9 15 17 19
5 6 7 6 7 9 10 10 9 4 4 5 5 5 5 6 5 5 4 5 6 6 6 5 6 7 7 7 6 6 6 7 6 5 4 5 4 5 6 6 13 17 18
6 6 6 6 7 9 10 10 8 3 4 6 5 5 5 6 8 7 5 6 7 6 7 8 9 10 12 13 9 6 6 6 6 5 4 4 4 4 4 6 8 14 17
5 5 6 6 7 8 10 10 7 3 4 5 5 5 7 7 8 8 4 5 8 8 7 8 7 8 8 8 9 7 6 7 5 4 4 4 3 2 3 3 4 5 8
Wind_Direction
325 316 309 307 296 288 265 251 238 221 214 210 213 211 217 228 241 245 247 257 255 243 227 217 211 205 203 203 200 192 182 177 176 172 171 166 163 158 155 154 153 151 149
332 323 321 316 307 295 263 237 228 219 221 207 213 218 219 221 230 239 242 251 251 246 233 222 215 207 205 205 202 194 188 182 180 176 173 169 166 162 160 158 157 154 151
353 338 334 332 316 312 290 263 237 212 219 211 211 215 215 223 223 233 236 235 241 245 235 225 216 209 208 207 204 198 193 189 185 180 178 174 171 169 166 164 163 160 156
6 355 348 335 326 331 325 287 244 215 219 219 215 222 220 224 231 235 234 233 231 237 232 226 218 211 209 208 208 205 200 195 193 189 185 180 177 176 174 173 173 169 165
14 12 1 341 344 349 349 321 265 212 219 232 231 225 225 227 233 245 239 236 230 228 223 225 222 215 210 210 211 211 208 203 199 198 193 188 184 182 180 179 178 176 176
15 18 13 0 1 13 4 351 323 292 234 243 255 243 230 227 223 233 236 231 224 227 221 217 218 218 215 213 214 215 215 212 207 205 201 196 192 188 186 185 184 184 184
17 23 17 11 13 20 6 356 352 11 342 345 41 333 306 246 228 233 233 228 227 223 212 214 214 213 215 218 217 217 218 218 214 210 208 204 199 196 192 192 192 192 191
14 22 22 15 13 19 20 16 20 34 6 23 85 85 348 343 308 255 239 230 233 221 219 222 215 213 212 212 217 219 220 220 218 216 213 210 205 203 199 199 199 199 198
12 18 16 15 14 22 16 9 17 47 23 355 23 116 136 235 309 332 285 260 248 227 230 221 221 218 216 215 216 219 220 220 221 221 220 215 211 208 205 205 205 206 204
7 14 14 15 17 20 17 4 25 23 63 28 354 4 156 187 155 336 338 339 291 251 244 240 235 224 221 218 219 216 218 219 221 224 225 222 217 213 211 210 210 210 210
356 6 12 16 19 19 17 18 21 29 40 63 30 358 20 26 68 154 310 332 332 287 259 247 241 232 224 221 222 224 220 219 221 224 227 227 223 219 217 216 215 215 216
340 355 6 17 19 18 16 15 23 32 30 40 34 32 64 90 250 169 226 284 294 288 280 265 248 239 232 226 227 228 225 222 223 227 228 229 228 225 222 220 220 219 219
330 336 355 2 10 10 17 25 33 31 28 30 15 347 316 269 247 200 198 255 279 293 305 291 260 247 244 234 235 234 231 226 225 228 231 230 229 229 227 225 224 223 223
293 315 339 356 8 14 28 35 38 25 27 23 12 360 334 312 283 226 196 184 290 300 298 287 291 262 268 260 251 242 240 234 230 230 232 232 231 229 229 228 227 226 226
292 332 350 2 11 19 24 36 40 21 15 12 360 360 350 322 312 273 236 200 194 254 279 281 291 306 309 290 275 257 248 245 240 236 235 233 232 230 229 228 227 227 227
312 337 350 0 12 16 20 33 25 6 16 3 355 6 357 332 324 315 283 242 213 215 254 271 268 287 302 299 291 275 260 255 248 243 240 237 235 232 231 230 228 226 225
306 314 328 342 350 356 8 22 7 5 11 359 356 354 341 332 332 324 313 269 235 219 248 274 271 284 285 290 300 291 274 259 255 248 242 240 237 234 233 231 229 226 225
289 282 299 310 312 327 335 347 341 353 351 345 342 341 333 337 335 322 307 277 250 232 234 267 281 286 277 282 283 284 277 269 257 254 245 241 238 235 233 231 230 227 225
272 280 277 278 287 297 299 300 297 307 314 314 317 319 316 325 323 316 306 291 272 259 233 256 279 277 283 290 294 287 278 271 269 265 254 245 239 237 235 232 230 229 226
254 264 263 267 274 282 277 278 282 292 303 307 304 301 299 290 283 291 296 287 276 273 260 264 275 280 279 289 289 290 295 281 279 277 262 252 244 239 237 233 229 228 226
250 251 261 273 276 272 261 256 263 275 292 307 311 309 303 302 298 288 292 284 269 266 266 269 279 281 284 292 288 283 288 298 285 257 262 256 244 241 238 236 233 230 227
256 254 256 262 272 269 278 276 257 252 268 284 299 307 308 310 320 330 330 325 299 264 261 258 269 278 282 274 271 274 283 298 294 274 261 269 239 248 242 234 232 229 228
249 256 259 256 263 270 277 281 277 252 248 260 272 287 302 311 324 314 320 328 323 309 283 259 264 269 273 265 270 278 273 268 266 268 279 275 250 254 248 239 233 230 229
244 251 258 256 261 271 275 276 277 263 251 257 256 260 269 287 297 300 301 309 303 295 285 273 254 262 264 265 256 264 274 277 273 262 233 260 257 253 255 240 237 233 230
250 249 254 255 258 271 276 274 271 246 259 267 262 254 254 268 288 300 298 300 303 297 286 272 270 275 279 280 275 268 266 270 277 267 218 232 251 260 261 255 242 235 233
256 263 263 256 252 264 277 275 265 223 254 270 274 262 260 264 281 293 284 288 296 297 304 308 301 297 289 283 279 256 253 262 268 270 227 215 239 244 272 261 248 238 234
Height
1504 1503 1502 1502 1502 1503 1503 1504 1506 1507 1508 1509 1511 1512 1514 1515 1516 1517 1519 1520 1521 1523 1524 1525 1526 1527 1529 1530 1532 1533 1535 1537 1539 1541 1542 1545 1546 1548 1549 1551 1553 1554 1556
1502 1501 1501 1500 1500 1500 1501 1502 1503 1504 1505 1507 1508 1509 1511 1513 1514 1515 1517 1518 1520 1521 1522 1524 1525 1526 1527 1529 1531 1532 1534 1536 1538 1540 1542 1544 1546 1548 1549 1551 1553 1554 1556
1501 1500 1499 1498 1498 1499 1499 1500 1501 1501 1502 1504 1505 1506 1508 1510 1511 1513 1514 1516 1518 1519 1521 1522 1523 1525 1526 1528 1530 1531 1533 1535 1537 1539 1541 1543 1545 1547 1549 1551 1552 1554 1556
1500 1499 1498 1497 1497 1497 1497 1498 1498 1499 1500 1501 1502 1504 1505 1507 1509 1510 1512 1514 1515 1517 1519 1520 1522 1524 1525 1527 1528 1530 1532 1534 1536 1538 1541 1542 1544 1546 1548 1550 1552 1554 1555
1499 1498 1497 1496 1495 1495 1495 1496 1496 1497 1498 1499 1500 1501 1502 1504 1505 1507 1509 1511 1512 1515 1517 1518 1520 1522 1524 1525 1527 1529 1531 1533 1535 1537 1539 1541 1543 1545 1547 1549 1551 1553 1555
1499 1497 1496 1495 1495 1494 1494 1494 1494 1495 1496 1496 1497 1498 1499 1501 1502 1504 1506 1508 1510 1512 1514 1516 1518 1520 1522 1524 1526 1527 1529 1531 1533 1535 1537 1540 1542 1544 1546 1548 1550 1552 1554
1499 1497 1496 1495 1494 1493 1493 1493 1493 1493 1494 1495 1495 1496 1497 1498 1499 1501 1503 1504 1506 1509 1511 1513 1515 1518 1520 1522 1524 1525 1527 1529 1531 1533 1535 1538 1540 1542 1544 1546 1548 1550 1552
1499 1498 1496 1495 1494 1493 1492 1492 1492 1492 1492 1493 1494 1495 1495 1497 1497 1498 1499 1501 1503 1505 1507 1510 1512 1515 1517 1519 1521 1523 1525 1527 1529 1531 1533 1535 1538 1540 1542 1544 1546 1548 1550
1500 1498 1496 1495 1494 1493 1492 1491 1491 1491 1491 1492 1493 1494 1494 1494 1495 1496 1497 1498 1500 1502 1504 1506 1509 1511 1514 1516 1518 1521 1522 1524 1526 1528 1530 1532 1535 1537 1539 1542 1544 1546 1548
1500 1499 1497 1496 1494 1493 1492 1492 1491 1491 1491 1491 1492 1492 1494 1494 1494 1494 1496 1496 1498 1499 1501 1503 1505 1507 1510 1512 1515 1517 1519 1521 1523 1525 1527 1529 1531 1534 1536 1539 1541 1543 1545
1501 1499 1498 1496 1495 1494 1493 1492 1491 1491 1490 1490 1491 1491 1492 1492 1493 1494 1494 1495 1496 1497 1498 1500 1501 1503 1506 1508 1510 1513 1515 1518 1520 1522 1524 1526 1528 1530 1532 1535 1537 1540 1542
1501 1500 1499 1497 1496 1494 1493 1492 1491 1490 1490 1490 1490 1490 1491 1491 1491 1492 1493 1493 1493 1495 1496 1497 1498 1500 1502 1503 1506 1508 1510 1513 1515 1517 1520 1522 1524 1526 1528 1531 1533 1535 1538
1501 1500 1499 1498 1496 1495 1494 1492 1491 1490 1490 1489 1489 1489 1489 1490 1490 1491 1491 1491 1492 1492 1493 1494 1495 1497 1498 1499 1501 1503 1505 1508 1510 1513 1515 1517 1519 1522 1524 1526 1529 1531 1533
1501 1500 1499 1498 1496 1495 1494 1492 1491 1490 1489 1489 1488 1488 1488 1488 1489 1489 1490 1490 1490 1490 1491 1492 1493 1494 1494 1495 1497 1498 1500 1502 1505 1507 1510 1512 1514 1517 1519 1521 1524 1526 1528
1501 1500 1499 1497 1496 1495 1493 1492 1491 1490 1489 1488 1487 1487 1487 1487 1487 1487 1488 1488 1489 1488 1488 1489 1490 1491 1491 1492 1492 1493 1495 1497 1499 1501 1504 1506 1508 1511 1513 1516 1518 1520 1523
1500 1499 1498 1497 1495 1494 1493 1491 1490 1489 1488 1487 1486 1486 1486 1485 1485 1485 1486 1486 1486 1487 1486 1486 1486 1487 1487 1488 1488 1489 1490 1491 1493 1495 1497 1500 1502 1504 1507 1509 1512 1515 1517
1499 1498 1497 1496 1494 1493 1492 1490 1489 1488 1487 1486 1485 1485 1484 1484 1484 1483 1483 1484 1484 1484 1483 1483 1483 1483 1483 1483 1484 1484 1485 1486 1487 1489 1491 1493 1495 1498 1500 1503 1505 1508 1511
1498 1497 1496 1495 1493 1492 1491 1489 1488 1487 1486 1485 1484 1483 1483 1482 1482 1481 1481 1481 1481 1481 1481 1480 1480 1480 1479 1479 1479 1479 1480 1480 1481 1483 1484 1486 1488 1491 1493 1496 1498 1501 1504
1497 1496 1495 1494 1493 1491 1490 1488 1487 1486 1485 1484 1483 1482 1481 1481 1480 1480 1479 1479 1479 1478 1478 1477 1476 1476 1476 1475 1475 1475 1475 1475 1476 1477 1478 1480 1482 1484 1486 1488 1490 1493 1496
1497 1496 1494 1493 1492 1491 1489 1488 1486 1485 1484 1483 1482 1481 1480 1479 1479 1478 1478 1477 1476 1476 1475 1474 1473 1473 1472 1472 1471 1470 1470 1470 1471 1471 1472 1474 1475 1477 1479 1481 1483 1486 1488
1496 1495 1494 1493 1491 1490 1489 1487 1486 1484 1483 1482 1481 1480 1479 1478 1477 1476 1476 1475 1474 1473 1472 1472 1471 1470 1469 1468 1468 1467 1466 1465 1466 1466 1467 1468 1468 1470 1472 1474 1476 1478 1480
1495 1494 1493 1492 1491 1489 1488 1486 1485 1484 1482 1481 1480 1479 1478 1477 1476 1475 1474 1473 1472 1471 1470 1469 1468 1467 1466 1465 1465 1464 1463 1462 1461 1462 1461 1462 1463 1463 1465 1466 1468 1470 1472
1494 1493 1492 1491 1489 1488 1487 1485 1484 1482 1481 1480 1479 1478 1477 1475 1474 1473 1472 1471 1470 1469 1468 1467 1465 1464 1463 1462 1461 1460 1459 1458 1457 1457 1457 1455 1457 1457 1458 1459 1461 1463 1464
1491 1491 1490 1489 1488 1486 1485 1484 1482 1481 1480 1479 1477 1476 1475 1473 1472 1471 1470 1469 1468 1467 1465 1464 1462 1461 1460 1459 1458 1456 1455 1454 1452 1452 1453 1451 1450 1451 1452 1452 1454 1455 1457
1488 1487 1487 1486 1485 1484 1483 1481 1480 1479 1477 1476 1475 1474 1473 1471 1470 1468 1467 1466 1465 1464 1462 1460 1459 1457 1456 1455 1454 1452 1451 1450 1447 1447 1448 1446 1445 1445 1445 1445 1447 1448 1449
1484 1484 1483 1482 1481 1480 1480 1478 1477 1476 1475 1474 1473 1472 1470 1469 1468 1466 1464 1462 1461 1460 1458 1457 1456 1454 1453 1451 1450 1448 1447 1445 1444 1442 1442 1442 1441 1441 1439 1438 1439 1440 1441